Orbital Elements at Epoch 2459200.5 (2020-Dec-17.0) TDB
Reference: JPL 18 (heliocentric ecliptic J2000)
Element | Value | Uncertainty (1-sigma) | Units |
e | .07211149517380325 | 4.587e-08 | |
a | 2.461406720244542 | 1.6119e-08 | au |
q | 2.283911001416861 | 1.2037e-07 | au |
i | 7.601259856935272 | 4.9898e-06 | deg |
node | 88.42916396793667 | 4.0796e-05 | deg |
peri | 42.08437941468433 | 5.88e-05 | deg |
M | 266.708503630365 | 4.3521e-05 | deg |
tp | 2459566.021610180029 (2021-Dec-17.52161018) | 0.00017202 | TDB |
period | 1410.501329547119 3.86 | 1.3855e-05 3.793e-08 | d yr |
n | .2552284017453483 | 2.5071e-09 | deg/d |
Q | 2.638902439072224 | 1.7281e-08 | au |
|
| | Orbit Determination Parameters
Additional Information
|